CAPE
0 0 0 0 0 0 0 0 0 0 0 0 0 0 0 0 0 0 0 0 0 0 0 0 0 0 0 0 0 0 0 0 0 0 0 0 0 0 0 0 0 0 0 0
0 0 0 0 0 0 0 0 0 0 0 0 0 0 0 0 0 0 0 0 0 0 0 0 0 0 0 0 0 0 0 0 0 0 0 0 0 0 0 0 0 0 0 0
0 0 0 0 0 0 0 0 0 0 0 0 0 0 0 0 0 0 0 0 0 0 0 0 0 0 0 0 0 0 0 0 0 0 0 0 0 0 0 0 0 0 0 0
0 0 0 0 0 0 0 0 0 0 0 0 0 0 0 0 0 0 0 0 0 0 0 0 0 0 0 0 0 0 0 0 0 0 0 0 0 0 0 0 0 0 0 0
0 0 0 0 0 0 0 0 0 0 0 0 0 0 0 0 0 0 0 0 0 0 0 0 0 0 0 0 0 0 0 0 0 0 0 0 0 0 0 0 0 0 0 0
0 0 0 0 0 0 0 0 0 0 0 0 0 0 0 0 0 0 0 0 0 0 0 0 0 0 0 0 0 0 0 0 0 0 0 0 0 0 0 0 0 0 0 0
0 0 0 0 0 0 0 0 0 0 0 0 0 0 0 0 0 0 0 0 0 0 0 0 0 0 0 0 0 0 0 0 0 0 0 0 0 0 0 0 0 0 0 0
0 0 0 0 0 0 0 0 0 0 0 0 0 0 0 0 0 0 0 0 0 0 0 0 0 0 0 0 0 0 0 0 0 0 0 0 0 0 0 0 0 0 0 0
0 0 0 0 0 0 0 0 0 0 0 0 0 0 0 0 0 0 0 0 0 0 0 0 0 0 0 0 0 0 0 0 0 0 0 0 0 0 0 0 0 0 0 0
0 0 0 0 0 0 0 0 0 0 0 0 0 0 0 0 0 0 0 0 0 0 0 0 0 0 0 0 0 0 0 0 0 0 0 0 0 0 0 0 0 0 0 0
0 0 0 0 0 0 0 0 0 0 0 0 0 0 0 0 0 0 0 0 0 0 0 0 0 0 0 0 0 0 0 0 0 0 0 0 0 0 0 0 0 0 0 0
0 0 0 0 0 0 0 0 0 0 0 0 0 0 0 0 0 0 0 0 0 0 0 0 0 0 0 0 0 0 0 0 0 0 0 0 0 0 0 0 0 0 0 0
0 0 0 0 0 0 0 0 0 0 0 0 0 0 0 0 0 0 0 0 0 0 0 0 0 0 0 0 0 0 0 0 0 0 0 0 0 0 0 0 0 0 0 0
0 0 0 0 0 0 0 0 0 0 0 0 0 0 0 0 0 0 0 0 0 0 0 0 0 0 0 0 0 0 0 0 0 0 0 0 0 0 0 0 0 0 0 0
0 0 0 0 0 0 0 0 0 0 0 0 0 0 0 0 0 0 0 0 0 0 0 0 0 0 0 0 0 0 0 0 0 0 0 0 0 0 0 0 0 0 0 0
0 0 0 0 0 0 0 0 0 0 0 0 0 0 0 0 0 0 0 0 0 0 0 0 0 0 0 0 0 0 0 0 0 0 0 0 0 0 0 0 0 0 0 0
0 0 0 0 0 0 0 0 0 0 0 0 0 0 0 0 0 0 0 0 0 0 0 0 0 0 0 0 0 0 0 0 0 0 0 0 0 0 0 0 0 0 0 0
0 0 0 0 0 0 0 0 0 0 0 0 0 0 0 0 0 0 0 0 0 0 0 0 0 0 0 0 0 0 0 0 0 0 0 0 0 0 0 0 0 0 0 0
0 0 0 0 0 0 0 0 0 0 0 0 0 0 0 0 0 0 0 0 0 0 0 0 0 0 0 0 0 0 0 0 0 0 0 0 0 0 0 0 0 0 0 0
0 0 0 0 0 0 0 0 0 0 0 0 0 0 0 0 0 0 0 0 0 0 0 0 0 0 0 0 0 0 0 0 0 0 0 0 0 0 0 0 0 0 0 0
0 27 17 2 0 0 0 0 0 0 0 0 0 0 0 0 0 0 0 0 0 0 0 0 0 0 0 0 0 0 0 0 0 0 0 0 0 0 0 0 0 0 0 0
0 0 0 7 16 30 0 0 0 0 0 0 0 0 0 0 0 0 0 0 0 0 0 0 0 0 0 0 0 0 0 0 0 0 0 0 0 0 0 0 0 0 0 0
0 0 0 0 0 0 0 0 0 0 0 0 0 0 0 0 0 0 0 0 0 0 0 0 0 0 0 0 0 0 0 0 0 0 0 0 0 0 0 0 0 0 0 0
0 4 1 0 0 0 0 0 0 0 0 0 0 0 0 0 0 0 0 0 0 0 0 0 0 0 0 0 0 0 0 0 0 0 0 0 0 0 0 0 0 0 0 0
0 6 0 0 0 0 2 0 0 0 0 0 0 0 0 0 0 0 0 0 0 0 0 0 0 0 0 0 0 0 0 0 0 0 0 0 0 0 0 0 0 0 0 0
5 0 4 0 0 2 0 0 0 0 0 0 0 0 0 0 0 0 0 0 0 0 0 0 0 0 0 0 0 0 0 0 0 0 0 0 0 0 0 0 0 0 0 0
CIN
0 0 0 0 0 0 0 0 0 0 0 0 0 0 0 0 0 0 0 0 0 0 0 0 0 0 0 0 0 0 0 0 0 0 0 0 0 0 0 0 0 0 0 0
0 0 0 0 0 0 0 0 0 0 0 0 0 0 0 0 0 0 0 0 0 0 0 0 0 0 0 0 0 0 0 0 0 0 0 0 0 0 0 0 0 0 0 0
0 0 0 0 0 0 0 0 0 0 0 0 0 0 0 0 0 0 0 0 0 0 0 0 0 0 0 0 0 0 0 0 0 0 0 0 0 0 0 0 0 0 0 0
0 0 0 0 0 0 0 0 0 0 0 0 0 0 0 0 0 0 0 0 0 0 0 0 0 0 0 0 0 0 0 0 0 0 0 0 0 0 0 0 0 0 0 0
0 0 0 0 0 0 0 0 0 0 0 0 0 0 0 0 0 0 0 0 0 0 0 0 0 0 0 0 0 0 0 0 0 0 0 0 0 0 0 0 0 0 0 0
0 0 0 0 0 0 0 0 0 0 0 0 0 0 0 0 0 0 0 0 0 0 0 0 0 0 0 0 0 0 0 0 0 0 0 0 0 0 0 0 0 0 0 0
0 0 0 0 0 0 0 0 0 0 0 0 0 0 0 0 0 0 0 0 0 0 0 0 0 0 0 0 0 0 0 0 0 0 0 0 0 0 0 0 0 0 0 0
0 0 0 0 0 0 0 0 0 0 0 0 0 0 0 0 0 0 0 0 0 0 0 0 0 0 0 0 0 0 0 0 0 0 0 0 0 0 0 0 0 0 0 0
0 0 0 0 0 0 0 0 0 0 0 0 0 0 0 0 0 0 0 0 0 0 0 0 0 0 0 0 0 0 0 0 0 0 0 0 0 0 0 0 0 0 0 0
0 0 0 0 0 0 0 0 0 0 0 0 0 0 0 0 0 0 0 0 0 0 0 0 0 0 0 0 0 0 0 0 0 0 0 0 0 0 0 0 0 0 0 0
0 0 0 0 0 0 0 0 0 0 0 0 0 0 0 0 0 0 0 0 0 0 0 0 0 0 0 0 0 0 0 0 0 0 0 0 0 0 0 0 0 0 0 0
0 0 0 0 0 0 0 0 0 0 0 0 0 0 0 0 0 0 0 0 0 0 0 0 0 0 0 0 0 0 0 0 0 0 0 0 0 0 0 0 0 0 0 0
0 0 0 0 0 0 0 0 0 0 0 0 0 0 0 0 0 0 0 0 0 0 0 0 0 0 0 0 0 0 0 0 0 0 0 0 0 0 0 0 0 0 0 0
0 0 0 0 0 0 0 0 0 0 0 0 0 0 0 0 0 0 0 0 0 0 0 0 0 0 0 0 0 0 0 0 0 0 0 0 0 0 0 0 0 0 0 0
0 0 0 0 0 0 0 0 0 0 0 0 0 0 0 0 0 0 0 0 0 0 0 0 0 0 0 0 0 0 0 0 0 0 0 0 0 0 0 0 0 0 0 0
0 0 0 0 0 0 0 0 0 0 0 0 0 0 0 0 0 0 0 0 0 0 0 0 0 0 0 0 0 0 0 0 0 0 0 0 0 0 0 0 0 0 0 0
0 0 0 0 0 0 0 0 0 0 0 0 0 0 0 0 0 0 0 0 0 0 0 0 0 0 0 0 0 0 0 0 0 0 0 0 0 0 0 0 0 0 0 0
0 0 0 0 0 0 0 0 0 0 0 0 0 0 0 0 0 0 0 0 0 0 0 0 0 0 0 0 0 0 0 0 0 0 0 0 0 0 0 0 0 0 0 0
0 0 0 0 0 0 0 0 0 0 0 0 0 0 0 0 0 0 0 0 0 0 0 0 0 0 0 0 0 0 0 0 0 0 0 0 0 0 0 0 0 0 0 0
-1 0 0 0 0 0 0 0 0 0 -1 0 0 0 0 0 0 0 0 0 0 0 0 0 0 0 0 0 0 0 0 0 0 0 0 0 0 0 0 0 0 0 0 0
0 -5 -6 -3 0 0 0 0 0 0 0 0 0 0 0 0 0 0 0 0 0 0 0 0 0 0 0 0 0 0 0 0 0 0 0 0 0 0 0 0 0 0 0 0
0 0 -3 -4 -3 -2 0 0 0 0 0 0 0 0 0 0 0 0 0 0 0 0 0 0 0 0 0 0 0 0 0 0 0 0 0 0 0 0 0 0 0 0 0 0
-4 -3 -1 -1 -1 0 0 0 0 0 0 0 0 0 0 0 0 0 0 0 0 0 0 0 0 0 0 0 0 0 0 0 0 0 0 0 0 0 0 0 0 0 0 0
-1 -14 -4 0 0 0 0 0 0 0 0 0 0 0 0 0 0 0 0 0 0 0 0 0 0 0 0 0 0 0 0 0 0 0 0 0 0 0 0 0 0 0 0 0
0 -23 0 0 0 0 -6 0 0 0 0 0 0 0 0 0 0 0 0 0 0 0 0 0 0 0 0 0 0 0 0 0 0 0 0 0 0 0 0 0 0 0 0 0
-52 0 -14 -42 -16 -9 0 0 0 0 0 0 0 0 0 0 0 0 0 0 0 0 -2 0 0 0 0 0 0 0 0 0 0 0 0 0 0 0 0 0 0 0 0 0
Wind_Speed
7 3 8 7 8 8 7 8 8 10 6 4 7 11 14 11 7 9 9 10 9 8 9 10 10 10 10 10 10 14 15 14 10 9 7 5 6 5 4 5 8 8 7 8
3 9 4 5 4 5 7 9 10 5 2 6 8 16 14 3 5 4 5 8 9 8 8 10 11 10 10 10 10 11 14 14 10 8 7 4 5 4 4 5 6 7 7 8
7 6 3 4 6 7 8 7 5 5 10 11 9 4 6 6 9 7 9 7 7 3 5 10 11 12 10 10 10 10 12 14 13 10 5 4 3 3 4 5 4 6 8 8
6 6 2 4 7 7 7 6 5 6 7 4 7 2 8 8 11 12 11 10 10 11 10 6 5 15 15 13 10 11 9 13 13 12 10 8 8 6 5 5 4 6 8 8
3 2 3 5 3 4 2 5 6 6 6 6 2 2 1 9 9 10 10 10 9 9 10 11 10 2 13 14 11 12 10 9 11 12 10 8 7 5 4 4 6 7 7 8
12 1 2 4 5 2 8 7 11 7 4 3 5 2 3 4 7 7 8 9 9 8 8 7 9 9 4 8 9 10 11 9 9 9 10 10 10 7 5 6 6 6 5 6
5 9 5 1 5 6 5 5 4 1 2 3 4 2 6 8 7 9 7 7 9 9 7 7 7 8 8 3 8 9 10 9 9 9 9 10 9 10 10 9 8 7 7 5
4 3 5 5 2 3 4 3 2 4 4 1 2 3 7 9 5 5 9 8 8 9 8 9 7 4 6 7 1 7 8 8 9 9 9 10 9 7 9 8 6 7 7 8
5 2 3 1 3 1 3 2 1 4 5 2 5 6 6 9 6 2 11 10 10 10 9 10 10 8 3 1 4 5 6 6 8 9 8 10 12 11 11 11 7 8 8 7
5 5 1 3 2 4 3 5 1 2 3 4 4 8 5 10 7 9 11 11 9 10 11 10 9 10 9 5 1 4 7 8 8 8 9 10 12 13 13 9 12 10 8 9
6 4 2 2 6 3 3 3 4 1 2 1 4 3 6 11 12 11 11 10 9 9 9 10 10 9 10 10 9 5 5 8 8 8 7 8 10 12 11 13 12 13 10 9
6 4 5 5 4 6 3 5 3 2 3 2 3 6 11 15 11 11 10 9 9 9 9 10 11 10 11 11 11 12 11 7 7 8 8 9 8 8 11 13 15 13 14 14
7 4 5 2 3 3 3 4 6 5 1 4 1 3 6 16 13 10 9 9 8 9 9 8 10 11 12 12 11 10 12 12 9 7 7 8 8 8 11 12 12 12 12 13
4 4 6 7 8 2 3 7 5 5 3 4 6 9 6 13 13 10 9 9 8 8 8 8 8 9 10 11 12 11 11 10 9 9 8 7 8 8 9 9 8 9 12 13
7 5 10 13 14 11 8 11 10 9 10 9 8 15 14 12 10 10 8 7 8 9 12 12 12 11 12 13 12 12 11 12 12 8 8 8 8 7 7 8 8 8 9 12
7 5 10 13 14 16 19 16 17 17 16 16 16 16 11 10 9 11 12 12 6 7 10 12 13 14 14 15 15 12 11 13 12 10 9 10 8 7 8 8 8 8 8 9
6 4 6 5 7 9 8 8 7 1 14 7 6 6 9 9 11 11 13 13 7 10 10 11 11 12 12 13 15 13 12 12 12 10 7 8 10 10 8 8 8 8 9 9
7 7 4 6 7 4 6 17 12 14 12 13 13 13 12 11 11 10 9 14 12 12 12 10 9 12 11 11 12 13 11 12 11 11 7 8 10 10 8 8 8 8 7 9
12 8 4 4 3 10 9 16 12 9 7 11 13 13 12 12 9 9 13 15 10 8 9 11 9 11 12 14 12 12 14 12 11 11 8 9 10 12 9 8 8 7 7 7
4 8 7 5 4 4 9 14 15 12 4 14 13 12 15 15 11 6 14 16 12 14 13 14 13 12 12 12 12 11 12 14 13 9 11 11 12 11 13 9 8 6 6 8
2 0 5 7 5 6 11 17 16 3 7 15 14 13 12 9 7 12 11 15 15 14 16 11 12 13 14 12 12 9 11 12 12 11 12 12 11 12 12 10 6 7 7 7
4 4 3 3 5 6 15 15 9 10 16 16 14 9 8 11 14 15 15 14 14 16 17 15 13 12 11 9 12 14 12 10 12 13 13 13 12 10 10 12 13 7 7 7
4 4 3 3 6 20 18 9 9 11 14 11 14 14 14 16 16 16 16 16 14 15 12 14 13 14 13 11 10 11 11 13 12 14 14 13 14 12 11 10 12 8 7 6
7 9 7 8 9 12 14 19 15 8 10 13 13 16 16 19 18 18 16 15 14 14 13 12 14 15 15 13 12 11 12 12 12 14 14 13 12 14 12 8 7 10 8 6
9 8 11 14 14 12 11 9 11 18 18 18 17 15 14 15 18 20 19 18 17 16 16 15 15 14 16 15 16 14 12 11 13 14 12 12 10 11 12 11 9 9 11 9
1 10 6 6 14 11 11 13 13 13 13 16 18 19 18 17 19 20 18 17 17 16 17 15 16 17 17 15 16 15 12 11 13 14 11 10 8 9 10 11 13 13 17 20
Wind_Direction
189 293 263 3 12 6 323 302 294 288 90 2 289 292 283 270 286 257 219 206 233 259 193 168 168 166 164 169 167 170 172 177 174 180 186 181 186 185 188 189 198 190 179 185
248 239 2 18 8 312 294 289 283 317 30 326 294 294 292 38 290 289 249 213 207 241 197 166 165 164 168 176 176 172 174 175 181 181 186 182 174 186 180 186 196 192 188 183
245 306 95 349 313 288 281 274 318 343 322 275 279 251 99 39 37 33 42 24 5 284 277 172 166 172 170 184 181 178 176 175 181 176 167 175 174 179 173 190 192 198 190 191
285 84 16 302 266 254 286 18 343 321 336 310 22 275 58 60 60 47 43 35 28 14 359 349 217 177 177 182 175 183 179 179 185 180 182 180 191 190 189 177 176 193 192 194
305 220 220 268 310 9 330 342 298 304 296 305 170 111 116 81 70 58 37 34 40 51 26 360 342 281 186 177 178 179 183 188 187 188 183 183 190 183 181 173 184 189 197 194
256 151 240 282 345 292 331 290 268 223 235 256 154 173 5 84 92 68 47 36 16 40 33 48 356 340 325 178 168 164 179 188 184 183 188 181 187 187 185 189 194 196 195 197
209 216 128 92 264 188 241 277 300 150 175 225 132 309 157 115 84 93 75 41 26 24 33 25 38 3 350 277 171 167 169 187 187 184 188 189 189 192 192 199 200 183 191 189
277 222 183 153 281 347 292 5 309 305 4 349 177 209 181 136 159 84 79 55 32 28 25 21 31 55 6 347 177 171 176 179 185 190 196 194 197 195 210 209 194 194 192 202
330 123 98 342 11 344 133 227 339 303 239 295 183 75 80 143 178 234 65 44 38 21 13 16 11 11 74 11 298 189 186 202 205 195 191 199 200 204 207 211 207 199 197 194
315 306 47 115 248 232 252 331 294 248 284 283 213 167 185 171 165 68 51 49 33 21 5 13 8 6 11 7 252 208 196 210 217 221 200 203 208 211 214 210 218 211 200 201
306 255 125 131 206 151 166 244 223 278 238 278 333 346 117 119 63 64 54 44 41 32 9 12 4 7 9 5 8 318 224 209 218 218 223 210 211 215 214 219 218 214 208 201
21 307 290 286 62 25 350 337 326 179 328 266 133 282 109 87 70 65 57 38 40 36 13 14 4 11 11 12 5 2 9 312 239 216 211 215 209 208 218 223 223 219 213 205
340 295 294 180 109 49 1 358 354 323 348 254 199 237 123 67 55 57 59 41 41 31 17 14 8 8 6 6 1 6 357 349 344 286 225 223 214 206 221 228 228 222 223 218
270 276 291 285 317 175 291 333 343 337 322 283 240 277 290 46 42 25 56 43 34 27 16 11 8 6 3 1 355 351 356 347 333 331 315 251 233 218 212 220 224 221 220 222
3 277 296 298 309 314 291 281 277 259 260 253 276 291 310 37 34 22 14 40 30 21 13 9 3 2 359 356 348 346 351 345 332 321 324 309 265 239 230 221 220 223 220 224
320 288 316 288 284 281 276 265 260 257 252 253 266 270 33 30 19 16 355 342 23 17 10 359 358 355 353 349 340 339 343 340 334 329 349 334 329 291 253 238 228 224 228 225
280 273 317 274 290 336 289 265 266 117 35 336 296 27 18 11 2 3 331 312 354 14 5 354 354 348 341 339 330 335 334 332 327 326 352 344 338 333 314 270 233 225 227 232
258 296 302 297 328 253 114 25 68 82 58 39 26 10 356 348 345 338 318 14 3 359 350 347 346 333 325 323 320 324 325 325 318 317 342 337 333 323 312 317 291 253 222 225
215 232 279 266 285 305 6 29 11 338 74 41 6 350 341 338 340 316 346 352 342 336 349 337 328 317 319 314 314 320 320 319 314 310 333 329 326 317 305 297 291 284 257 238
213 199 212 297 304 303 35 2 339 304 157 346 354 347 345 343 329 318 340 329 339 343 328 318 309 313 300 304 303 305 307 314 314 316 326 322 318 309 309 289 280 267 263 257
344 280 225 236 240 260 35 2 329 206 355 350 346 329 320 312 288 310 319 316 312 310 303 303 305 299 298 298 293 298 297 296 304 313 314 313 307 307 302 304 281 271 269 268
344 324 314 300 261 241 359 350 350 314 326 319 312 304 308 314 316 315 313 311 314 310 301 298 299 296 290 303 301 292 291 299 308 308 305 304 303 300 304 302 297 273 266 265
293 316 308 232 275 313 321 316 319 305 292 315 337 327 323 318 311 309 304 299 299 299 298 293 290 294 295 287 282 289 298 298 290 299 300 301 300 299 296 294 297 309 277 262
303 310 281 301 304 307 313 310 301 307 328 330 321 312 310 306 307 304 300 298 298 298 301 299 297 296 295 294 292 285 293 292 292 290 292 298 299 301 298 293 299 295 294 279
267 304 282 285 286 286 290 304 338 331 327 316 308 309 309 310 305 304 301 299 296 293 294 295 292 295 298 298 293 293 289 290 292 291 289 290 294 299 302 296 287 284 283 273
231 262 276 269 277 285 308 319 321 317 324 324 316 319 323 326 322 321 316 318 317 319 326 317 305 293 292 298 295 290 291 285 287 290 290 285 284 289 294 294 296 270 265 274